New Philadelphia, OH

1:28 PM EDT on March 27, 2017 (GMT -0400)
Clever

Weather History for KPHD - October, 2010

Change the Weather History Date:

Sunday, October 31, 2010

  Actual Average Record
Temperature  
Mean Temperature 42 °F 48 °F  
Max Temperature 53 °F 59 °F 77 °F (1971)
Min Temperature 32 °F 37 °F 18 °F (1988)
Degree Days  
Heating Degree Days 23 17  
Month to date heating degree days 392  
Since 1 July heating degree days 499  
Cooling Degree Days 0 0  
Month to date cooling degree days 9  
Year to date cooling degree days 697  
Moisture  
Dew Point 30 °F    
Average Humidity 64    
Maximum Humidity 87    
Minimum Humidity 37    
Precipitation  
Precipitation 0.00 in 0.08 in 0.68 in (1976)
Month to date precipitation 2.75  
Year to date precipitation 32.96  
Sea Level Pressure  
Sea Level Pressure 30.06 in    
Wind  
Wind Speed 3 mph (North)    
Max Wind Speed 15 mph    
Max Gust Speed 21 mph    
Visibility 10 miles    
Events      
T = Trace of Precipitation, MM = Missing Value Source: NWS Daily Summary

Daily Weather History Graph

Daily Weather History Graph

Search for Another Location

Airport or City:

Trip Planner

Search our weather history database for the weather conditions in past years. The results will help you decide how hot, cold, wet, or windy it might be!

Date:

Astronomy

Oct. 31, 2010 Rise Set
Actual Time 7:54 AM EDT 6:23 PM EDT
Civil Twilight 7:26 AM EDT 6:51 PM EDT
Nautical Twilight 6:53 AM EDT 7:24 PM EDT
Astronomical Twilight 6:22 AM EDT 7:55 PM EDT
Moon 1:17 AM EDT (10/31) 3:00 PM EDT (10/31)
Length of Visible Light 11h 25m
Length of Day
10h 29m
Last Quarter, 37% of the Moon is Illuminated
Oct 31
Last Quarter
Nov 6
New
Nov 13
First Quarter
Nov 21
Full
Nov 28
Last Quarter

Hourly Weather History & Observations

Time (EDT) Temp. Windchill Dew Point Humidity Pressure Visibility Wind Dir Wind Speed Gust Speed Precip Events Conditions
12:53 AM 44.1 °F - 26.1 °F 49% 29.84 in 10.0 mi Calm Calm - N/A   Clear
1:53 AM 42.1 °F - 27.0 °F 55% 29.85 in 10.0 mi Calm Calm - N/A   Clear
2:53 AM 39.9 °F - 28.0 °F 63% 29.87 in 10.0 mi Calm Calm - N/A   Clear
3:53 AM 37.9 °F - 28.9 °F 70% 29.88 in 10.0 mi Calm Calm - N/A   Clear
4:53 AM 35.1 °F - 28.9 °F 78% 29.91 in 10.0 mi Calm Calm - N/A   Clear
5:53 AM 36.0 °F - 28.9 °F 76% 29.92 in 10.0 mi Calm Calm - N/A   Clear
6:53 AM 35.1 °F - 28.9 °F 78% 29.95 in 10.0 mi Calm Calm - N/A   Clear
7:29 AM 37.4 °F - 33.8 °F 87% 29.95 in 10.0 mi Calm Calm - N/A   Overcast
7:53 AM 41.0 °F 39.0 °F 34.0 °F 76% 29.97 in 10.0 mi North 3.5 mph - N/A   Overcast
8:53 AM 43.0 °F 39.5 °F 36.0 °F 76% 30.01 in 9.0 mi North 5.8 mph - N/A   Overcast
9:12 AM 44.6 °F 42.2 °F 37.4 °F 76% 30.01 in 10.0 mi NNW 4.6 mph - N/A   Overcast
9:53 AM 46.9 °F - 37.0 °F 68% 30.04 in 10.0 mi NNW 9.2 mph - N/A   Overcast
10:35 AM 46.4 °F 41.9 °F 35.6 °F 66% 30.04 in 10.0 mi NNW 9.2 mph - N/A   Mostly Cloudy
10:53 AM 48.0 °F - 36.0 °F 63% 30.06 in 10.0 mi North 10.4 mph - N/A   Mostly Cloudy
11:12 AM 48.2 °F - 35.6 °F 62% 30.05 in 10.0 mi NNE 5.8 mph - N/A   Mostly Cloudy
11:24 AM 46.4 °F 41.5 °F 35.6 °F 66% 30.06 in 10.0 mi North 10.4 mph - N/A   Mostly Cloudy
11:50 AM 46.4 °F 41.1 °F 33.8 °F 62% 30.07 in 10.0 mi NNW 11.5 mph - N/A   Overcast
11:53 AM 48.0 °F - 34.0 °F 58% 30.09 in 10.0 mi NNW 10.4 mph - N/A   Overcast
12:53 PM 50.0 °F - 30.0 °F 46% 30.09 in 10.0 mi NNW 9.2 mph - N/A   Scattered Clouds
1:53 PM 52.0 °F - 27.0 °F 38% 30.08 in 10.0 mi NNW 9.2 mph 20.7 mph N/A   Clear
2:53 PM 52.0 °F - 28.0 °F 40% 30.08 in 10.0 mi NNW 15.0 mph 19.6 mph N/A   Clear
3:53 PM 52.0 °F - 26.1 °F 37% 30.11 in 10.0 mi North 12.7 mph - N/A   Clear
4:53 PM 48.9 °F - 26.1 °F 41% 30.14 in 10.0 mi North 10.4 mph 17.3 mph N/A   Clear
5:53 PM 46.0 °F 43.9 °F 27.0 °F 47% 30.17 in 10.0 mi North 4.6 mph - N/A   Clear
6:53 PM 43.0 °F 38.8 °F 27.0 °F 53% 30.20 in 10.0 mi NNE 6.9 mph - N/A   Clear
7:53 PM 39.0 °F - 27.0 °F 62% 30.23 in 10.0 mi Calm Calm - N/A   Clear
8:53 PM 34.0 °F - 27.0 °F 75% 30.25 in 10.0 mi Calm Calm - N/A   Clear
9:53 PM 33.1 °F - 27.0 °F 78% 30.25 in 10.0 mi Calm Calm - N/A   Clear
10:53 PM 32.0 °F - 27.0 °F 82% 30.28 in 10.0 mi Calm Calm - N/A   Clear
11:53 PM 32.0 °F - 27.0 °F 82% 30.30 in 10.0 mi Calm Calm - N/A   Mostly Cloudy